Regional Weather Roundup
Issued by NWS

Home | Current Version | Previous Version | Graphics & Text | Print | Product List | Glossary On
Versions: 1 2 3 4 5 6 7 8 9 10 11 12 13 14 15 16 17 18 19 20 21 22 23 24 25 26 27 28 29 30 31 32 33 34 35 36 37 38 39 40 41 42 43 44 45 46 47 48 49 50
000
ASUS43 KTOP 211459
RWRKS

WEATHER ROUNDUP FOR KANSAS
NATIONAL WEATHER SERVICE GOODLAND KS
1000 AM CDT THU AUG 21 2014

NOTE:  "FAIR" INDICATES FEW OR NO CLOUDS BELOW 12,000 FEET WITH NO
SIGNIFICANT WEATHER AND/OR OBSTRUCTIONS TO VISIBILITY.

KSZ001>006-013>018-027>032-041>047-211600-
NORTHWEST KANSAS

CITY           SKY/WX    TMP DP  RH WIND       PRES   REMARKS
GOODLAND       SUNNY     77  59  53 N9        29.98R
HAYS           SUNNY     84  64  51 SW20G25   29.86R
HILL CITY      PTSUNNY   79  65  62 NE6       29.85S
RUSSELL        SUNNY     87  65  47 SW21G28   29.84S
$$

KSZ061>065-074>080-084>089-211600-
SOUTHWEST KANSAS

CITY           SKY/WX    TMP DP  RH WIND       PRES   REMARKS
DODGE CITY     SUNNY    N/A N/A N/A SW21      29.91S
ELKHART          N/A     78  57  48 W12         N/A
GARDEN CITY    SUNNY     82  64  54 SW15      29.91S
GREAT BEND     SUNNY     84  64  51 S18       29.87R
LIBERAL        SUNNY     84  63  48 SW20G25   29.94F
$$

KSZ066>073-081>083-090>101-211600-
SOUTHEAST KANSAS

CITY           SKY/WX    TMP DP  RH WIND       PRES   REMARKS
CHANUTE        SUNNY     85  70  60 S20G26    29.97R
COFFEYVILLE    SUNNY     85  72  65 S18G24    29.97R
HUTCHINSON     SUNNY     86  65  49 S20G26    29.90R
NEWTON         SUNNY     82  64  54 S21       29.95R
PARSONS        SUNNY     85  71  63 SW10      29.99R
WICHITA INTL   SUNNY     85  67  54 S20G28    29.92S
WICHITA JABRA  SUNNY     84  69  60 S17       29.92S
WINFIELD       SUNNY     84  70  62 S18G26    29.95R
$$

KSZ007>012-019>026-033>040-048>060-102>105-211600-
NORTHEAST KANSAS

CITY           SKY/WX    TMP DP  RH WIND       PRES   REMARKS
CONCORDIA      MOSUNNY   80  67  64 S6        29.86F
EMPORIA        SUNNY     85  70  60 S21       29.92S
LAWRENCE       MOSUNNY   87  71  58 S9        29.91R
MANHATTAN      SUNNY     88  69  53 SW15G24   29.86S
OLATHE IND     SUNNY     83  71  67 S20G28    29.94R
OLATHE EXE     SUNNY     82  71  69 S16       29.93S
SALINA         SUNNY     87  66  49 S23G29    29.86R
TOPEKA BILLARD SUNNY     85  71  63 S9G18     29.90R
TOPEKA FORBES  SUNNY     85  70  60 S16G25    29.90R
$$


USA.gov is the U.S. government's official web portal to all federal, state and local government web resources and services.